{"data":{"norad_id":57111,"epoch":"2026-09-20T00:24:34.935264Z","epoch_age_seconds":162635,"freshness":"FRESH","line1":"1 57111U 23090L   26263.01707101 -.00000528  00000+0 -96727-5 0  9997","line2":"2 57111  43.0014 263.9784 0001366 262.5978  97.4719 15.27572087180058","mean_motion":15.27572087,"eccentricity":0.0001366,"inclination_deg":43.0014,"raan_deg":263.9784,"arg_perigee_deg":262.5978,"mean_anomaly_deg":97.4719,"bstar":-9.6727e-6,"rev_number":18005,"period_min":94.267237026307,"perigee_km":482.13554925324,"apogee_km":484.01003176801,"semimajor_km":6861.2097905106,"source":"CELESTRAK","updated_at":"2026-09-21T09:00:33.559977Z"}}